OBJECT D, 43834

Orbit data source: Space-Track

You're viewing an Uncataloged Satellite

Recently launched and/or uncataloged satellites may have evolving metadata. Metadata may include but not limited to: Owner, Maufacturer, Bus, Motor, and Mission.

OBJECT D, 43834 is a satellite in SSO that was launched on Fri, 07 Dec 2018 UTC via a CHANG ZHENG 2D launch vehicle from the Jiuquan Satellite Launch Center, China (JSC). Unknown objects in Earth's orbit typically refer to objects detected orbiting the Earth but have not yet been identified or cataloged. These objects could be anything from previously untracked satellites, spent rocket stages, debris from satellite collisions, or even natural meteoroids temporarily captured by Earth's gravity.

Loading next visibility...
OBJECT D details
Identifier
43834, 2018-102D
Orbit
SSO
Last TLE update7 hours ago
Origin
Flag of TBDUESTC/GUOX (TBD)
ManufacturerGUOX/CTYK
MissionCommercial Technology
Bus & MotorCUBESAT 3U, Unknown motor
Mass8 kg wet, 8 kg dry
Launch date (UTC)
2018-12-07 (6 years ago)
Launch vehicle
CHANG ZHENG 2D
Launch site
Jiuquan Satellite Launch Center, China (JSC)
Object typeUnknown
Shape & HBRBox, 0.3 m
Radar Cross Section0.080 m², Medium (>0.1 m² and < 1m²)

Expand to show TLE details & history

TLE from 7 hours ago
0 OBJECT D
1 43834U 18102D   24361.11848425  .00026678  00000-0  90619-3 0  9990
2 43834  97.4034  71.0212 0008775 212.1658 147.9048 15.30423128334154
Epoch: 2024-12-26T02:50Z
Definitive object data (Epoch: 2024-12-26T02:50:37.039Z)
Latitude-0.00005°
Longitude-66.73559°
Altitude482.75 km
Speed7.621 km/s
True Right ascension04h 44m 05s
True Declination0° 00' 00"
Sunlit
Object was in full shadow at TLE epoch
Visualization TLE readout
Latitude-82.61897°
Longitude27.59513°
Altitude499.744 km
Speed7.615 km/s
Apparent Right ascension21h 21m 15s
Apparent Declination-69° 25' 15"
Sunlit
Object is in daylight
Visualization observer readout
Local Sidereal Time09:38:49
Azimuth176.876° S
Elevation-60.403°
Doppler factor1
Orbital elements
Apogee altitude477.511 km
Perigee altitude465.49 km
Semi-major axis6,849.638 km
Eccentricity0.0008775
Inclination97.4034°
RAAN71.0212°
Arg. of periapsis212.1658°
True anomaly147.95818°
Mean anomaly147.9048°
Eccentric anomaly147.93149°
Mean motion3.82862 °/min
BSTAR0.00090619
Orbital period94.03 mins
Loading maneuver chart data...
Loading historical data...
Loading historical data...
Loading historical data...
Loading historical data...
Loading historical data...
Loading historical data...
Loading historical data...

OBJECT D Visibility forecast

Observer location: undefined°, undefined

Span
Click to sort rows by Start time (UTC) header in descending order
Start Az.
Max El. time (UTC)
Max El. Az.
Max El.
End time (UTC)
End Az.
6 mins2024-12-26 17:31:39.689Z22.833° NE2024-12-26 17:34:39.689Z100.418° ESE39.288°2024-12-26 17:37:39.689Z177.514° S
4 mins2024-12-27 05:39:39.689Z224.454° SW2024-12-27 05:41:39.689Z272.162° WNW21.444°2024-12-27 05:43:39.689Z312.423° NW
|